GW2924 Weather Reports


Display with metric or nautical units.
time (UTC)temp
F
wind
direction
speed
MPH
gust
MPH
rain 1hr
in
rain 24hr
in
rain mn
in
humidity
%
barometer
mb
20260905083554 66 58 1.0 1.0 0.00 0.00 0.00 95 1015.6
20260905083103 66 70 0.0 1.0 0.00 0.00 0.00 95 1015.8
20260905082553 66 70 0.0 1.0 0.00 0.00 0.00 95 1015.8
20260905082054 67 0 0.0 1.0 0.00 0.00 0.00 95 1015.8
20260905081602 67 70 0.0 1.0 0.00 0.00 0.00 95 1015.9
20260905081053 67 0 0.0 2.0 0.00 0.00 0.00 95 1016.0
20260905080556 67 0 0.0 2.0 0.00 0.00 0.00 95 1016.0
20260905080107 67 29 0.0 2.0 0.00 0.00 0.00 95 1016.0
20260905075553 67 0 0.0 2.0 0.00 0.00 0.00 95 1016.0
20260905075053 67 0 0.0 2.0 0.00 0.00 0.00 95 1016.0
20260905074605 67 24 0.0 2.0 0.00 0.00 0.00 95 1016.0
20260905074053 67 0 0.0 0.0 0.00 0.00 0.00 95 1015.8
20260905073553 67 0 0.0 0.0 0.00 0.00 0.00 95 1016.1
20260905073105 67 0 0.0 2.0 0.00 0.00 0.00 95 1016.0
20260905072554 67 0 0.0 3.0 0.00 0.00 0.00 95 1016.0
20260905072053 68 0 1.0 3.0 0.00 0.00 0.00 94 1016.0
20260905071600 68 21 0.0 3.0 0.00 0.00 0.00 94 1015.9
20260905071054 68 19 0.0 1.0 0.00 0.00 0.00 94 1015.8
20260905070553 68 0 0.0 1.0 0.00 0.00 0.00 94 1015.7
20260905070107 68 19 0.0 3.0 0.00 0.00 0.00 94 1015.7
20260905065555 68 19 1.0 3.0 0.00 0.00 0.00 94 1015.6
20260905065053 68 27 1.0 2.0 0.00 0.00 0.00 94 1015.7
20260905064604 68 27 0.0 3.0 0.00 0.00 0.00 94 1015.7
20260905064059 68 0 1.0 3.0 0.00 0.00 0.00 94 1015.7
20260905063555 68 36 1.0 3.0 0.00 0.00 0.00 94 1015.7
20260905063102 68 33 2.0 3.0 0.00 0.00 0.00 94 1015.6
20260905062553 68 32 1.0 2.0 0.00 0.00 0.00 94 1015.7
20260905062053 69 34 1.0 3.0 0.00 0.00 0.00 93 1015.7
20260905061623 69 0 0.0 3.0 0.00 0.00 0.00 93 1015.7
20260905061056 69 29 2.0 3.0 0.00 0.00 0.00 93 1015.7
20260905060553 69 33 0.0 3.0 0.00 0.00 0.00 93 1015.6
20260905060109 70 0 0.0 3.0 0.00 0.00 0.00 92 1015.6
20260905055552 70 30 2.0 3.0 0.00 0.00 0.00 93 1015.7
20260905055053 70 27 2.0 3.0 0.00 0.00 0.00 93 1015.8
20260905054608 70 44 0.0 2.0 0.00 0.00 0.00 93 1015.8
20260905054052 70 44 1.0 4.0 0.00 0.00 0.00 93 1015.8
20260905053558 70 17 0.0 4.0 0.00 0.00 0.00 93 1015.7
20260905053104 70 75 1.0 4.0 0.00 0.00 0.00 93 1015.7
20260905052553 70 38 0.0 1.0 0.00 0.00 0.00 93 1015.6
20260905052053 70 0 0.0 0.0 0.00 0.00 0.00 93 1015.4
20260905051604 70 0 0.0 0.0 0.00 0.00 0.00 93 1015.2
20260905051053 70 0 0.0 0.0 0.00 0.00 0.00 93 1015.4
20260905050553 70 0 0.0 1.0 0.00 0.00 0.00 93 1015.3
20260905050101 70 0 0.0 1.0 0.00 0.00 0.00 93 1015.1
20260905045552 70 41 0.0 1.0 0.00 0.00 0.00 93 1015.1
20260905045053 71 0 0.0 1.0 0.00 0.00 0.00 93 1015.1
20260905044607 71 0 0.0 1.0 0.00 0.00 0.00 92 1015.3
20260905044052 71 41 0.0 1.0 0.00 0.00 0.00 92 1015.3
20260905043552 71 40 0.0 1.0 0.00 0.00 0.00 92 1015.3
20260905043104 71 37 0.0 2.0 0.00 0.00 0.00 92 1015.3
20260905042553 72 37 1.0 3.0 0.00 0.00 0.00 91 1015.3
20260905042053 72 37 1.0 3.0 0.00 0.00 0.00 91 1015.4
20260905041608 73 37 1.0 3.0 0.00 0.00 0.00 91 1015.4
20260905041053 73 0 0.0 3.0 0.00 0.00 0.00 91 1015.3
20260905040553 73 27 0.0 3.0 0.00 0.00 0.00 91 1015.3
20260905040059 73 27 1.0 3.0 0.00 0.00 0.00 91 1015.3
20260905035552 73 0 0.0 0.0 0.00 0.00 0.00 91 1015.3
20260905035053 73 0 0.0 0.0 0.00 0.00 0.00 91 1015.3
20260905034613 74 0 0.0 1.0 0.00 0.00 0.00 90 1015.3
20260905034056 74 0 0.0 1.0 0.00 0.00 0.00 90 1015.3
20260905033552 74 0 0.0 1.0 0.00 0.00 0.00 90 1015.3
20260905033105 74 0 0.0 4.0 0.00 0.00 0.00 90 1015.4
20260905032553 75 0 0.0 4.0 0.00 0.00 0.00 89 1015.4
20260905032053 75 351 1.0 5.0 0.00 0.00 0.00 89 1015.3
20260905031614 75 33 2.0 5.0 0.00 0.00 0.00 89 1015.3
20260905031056 75 22 3.0 5.0 0.00 0.00 0.00 88 1015.3
20260905030553 75 27 3.0 4.0 0.00 0.00 0.00 88 1015.4
20260905030106 76 18 2.0 4.0 0.00 0.00 0.00 88 1015.3
20260905025552 76 37 2.0 4.0 0.00 0.00 0.00 88 1015.3
20260905025057 76 32 2.0 5.0 0.00 0.00 0.00 88 1015.3
20260905024607 77 58 2.0 5.0 0.00 0.00 0.00 87 1015.2
20260905024053 77 37 3.0 6.0 0.00 0.00 0.00 87 1015.4
20260905023557 77 32 3.0 6.0 0.00 0.00 0.00 87 1015.3
20260905023109 77 43 3.0 6.0 0.00 0.00 0.00 87 1015.1
20260905022553 77 27 3.0 6.0 0.00 0.00 0.00 87 1014.9
20260905022054 77 32 4.0 6.0 0.00 0.00 0.00 87 1014.8
20260905021621 77 35 4.0 7.0 0.00 0.00 0.00 87 1014.8
20260905021052 77 32 4.0 7.0 0.00 0.00 0.00 87 1014.7
20260905020552 77 356 4.0 7.0 0.00 0.00 0.00 87 1014.6
20260905020125 77 351 3.0 5.0 0.00 0.00 0.00 88 1014.5
20260905015555 77 15 2.0 4.0 0.00 0.00 0.00 89 1014.4
20260905015055 77 58 1.0 3.0 0.00 0.00 0.00 89 1014.3
20260905014556 77 59 1.0 4.0 0.00 0.00 0.00 88 1014.3
20260905014053 78 56 2.0 5.0 0.00 0.00 0.00 87 1014.2
20260905013552 78 40 2.0 5.0 0.00 0.00 0.00 87 1014.1
20260905013107 78 24 2.0 5.0 0.00 0.00 0.00 88 1014.2
20260905012553 79 39 1.0 3.0 0.00 0.00 0.00 87 1014.1
20260905012053 79 31 0.0 3.0 0.00 0.00 0.00 87 1013.9
20260905011606 79 34 2.0 4.0 0.00 0.00 0.00 87 1013.8
20260905011052 79 31 2.0 4.0 0.00 0.00 0.00 86 1013.7
20260905010553 79 37 2.0 4.0 0.00 0.00 0.00 86 1013.8
20260905010107 80 32 1.0 3.0 0.00 0.00 0.00 86 1013.7
20260905005553 80 30 0.0 2.0 0.00 0.00 0.00 85 1013.7
20260905005052 80 25 0.0 2.0 0.00 0.00 0.00 85 1013.7
20260905004608 81 27 0.0 3.0 0.00 0.00 0.00 84 1013.6
20260905004052 81 23 0.0 3.0 0.00 0.00 0.00 83 1013.7
20260905003553 82 6 1.0 3.0 0.00 0.00 0.00 83 1013.6
20260905003111 82 34 2.0 3.0 0.00 0.00 0.00 83 1013.6
20260905002556 82 26 1.0 5.0 0.00 0.00 0.00 82 1013.5
20260905002053 83 40 2.0 5.0 0.00 0.00 0.00 82 1013.5
20260905001607 83 27 3.0 5.0 0.00 0.00 0.00 81 1013.5
20260905001052 83 20 2.0 4.0 0.00 0.00 0.00 81 1013.4
20260905000553 83 35 1.0 5.0 0.00 0.00 0.00 81 1013.3
20260905000112 84 33 2.0 5.0 0.00 0.00 0.00 80 1013.3
20260904235555 84 13 1.0 5.0 0.00 0.00 0.00 80 1013.3
20260904235052 84 18 1.0 5.0 0.00 0.00 0.00 79 1013.4
20260904234611 85 31 1.0 7.0 0.00 0.00 0.00 79 1013.4
20260904234052 85 30 2.0 7.0 0.00 0.00 0.00 78 1013.3
20260904233554 85 34 4.0 7.0 0.00 0.00 0.00 78 1013.3
20260904233121 86 14 2.0 7.0 0.00 0.00 0.00 77 1013.2
20260904232553 86 31 2.0 7.0 0.00 0.00 0.00 77 1013.1
20260904232054 86 29 2.0 6.0 0.00 0.00 0.00 76 1013.1
20260904231608 87 53 2.0 6.0 0.00 0.00 0.00 76 1013.1
20260904231054 87 25 2.0 5.0 0.00 0.00 0.00 75 1013.0
20260904230553 88 34 1.0 5.0 0.00 0.00 0.00 75 1012.9
20260904230117 88 0 2.0 6.0 0.00 0.00 0.00 74 1012.9
20260904225553 88 16 1.0 6.0 0.00 0.00 0.00 75 1012.8
20260904225056 88 21 2.0 6.0 0.00 0.00 0.00 74 1012.7
20260904224608 89 12 1.0 7.0 0.00 0.00 0.00 74 1012.7
20260904224053 89 0 1.0 8.0 0.00 0.00 0.00 74 1012.7
20260904223554 88 0 4.0 8.0 0.00 0.00 0.00 76 1012.6
20260904223132 89 21 3.0 7.0 0.00 0.00 0.00 74 1012.5
20260904222553 89 33 0.0 7.0 0.00 0.00 0.00 75 1012.5
20260904222051 89 43 1.0 3.0 0.00 0.00 0.00 72 1012.4
20260904221606 90 0 0.0 1.0 0.00 0.00 0.00 72 1012.5
20260904221052 91 0 0.0 1.0 0.00 0.00 0.00 69 1012.5
20260904220553 92 0 0.0 1.0 0.00 0.00 0.00 66 1012.4
20260904220105 93 240 0.0 1.0 0.00 0.00 0.00 64 1012.4
20260904215553 92 0 0.0 0.0 0.00 0.00 0.00 67 1012.4
20260904215053 91 0 0.0 1.0 0.00 0.00 0.00 67 1012.4
20260904214606 90 0 0.0 2.0 0.00 0.00 0.00 68 1012.4
20260904214052 91 193 0.0 2.0 0.00 0.00 0.00 67 1012.4
20260904213556 92 229 0.0 1.0 0.00 0.00 0.00 66 1012.4
20260904213107 93 0 0.0 2.0 0.00 0.00 0.00 67 1012.4
20260904212556 93 136 0.0 4.0 0.00 0.00 0.00 62 1012.3
20260904212052 94 270 0.0 4.0 0.00 0.00 0.00 61 1012.3
20260904211603 95 276 1.0 4.0 0.00 0.00 0.00 59 1012.3
20260904211054 94 0 0.0 3.0 0.00 0.00 0.00 62 1012.3
20260904210555 93 0 1.0 3.0 0.00 0.00 0.00 63 1012.2
20260904210125 93 240 0.0 2.0 0.00 0.00 0.00 61 1012.3
20260904205556 92 62 0.0 2.0 0.00 0.00 0.00 63 1012.3
20260904205052 92 359 0.0 3.0 0.00 0.00 0.00 64 1012.3
20260904204602 93 360 1.0 3.0 0.00 0.00 0.00 63 1012.2
20260904204055 94 34 1.0 3.0 0.00 0.00 0.00 60 1012.3
20260904203555 94 85 0.0 2.0 0.00 0.00 0.00 61 1012.3
20260904203103 93 0 1.0 3.0 0.00 0.00 0.00 60 1012.3
20260904202555 93 0 1.0 3.0 0.00 0.00 0.00 61 1012.3
20260904202054 94 252 1.0 2.0 0.00 0.00 0.00 60 1012.3
20260904201609 93 290 0.0 2.0 0.00 0.00 0.00 62 1012.3
20260904201051 92 0 0.0 4.0 0.00 0.00 0.00 63 1012.3
20260904200552 92 53 2.0 4.0 0.00 0.00 0.00 63 1012.3
20260904200106 93 290 2.0 5.0 0.00 0.00 0.00 64 1012.4
20260904195552 92 38 1.0 5.0 0.00 0.00 0.00 64 1012.3
20260904195052 93 37 1.0 3.0 0.00 0.00 0.00 62 1012.2
20260904194603 93 295 0.0 4.0 0.00 0.00 0.00 66 1012.3
20260904194056 93 266 0.0 4.0 0.00 0.00 0.00 63 1012.3
20260904193556 93 261 0.0 3.0 0.00 0.00 0.00 62 1012.3
20260904193125 93 282 0.0 2.0 0.00 0.00 0.00 65 1012.3
20260904192556 93 264 0.0 3.0 0.00 0.00 0.00 63 1012.3
20260904192056 93 229 1.0 3.0 0.00 0.00 0.00 64 1012.4
20260904191602 93 235 1.0 4.0 0.00 0.00 0.00 63 1012.4
20260904191057 92 0 0.0 5.0 0.00 0.00 0.00 65 1012.5
20260904190557 92 27 2.0 5.0 0.00 0.00 0.00 62 1012.4
20260904190111 93 255 0.0 3.0 0.00 0.00 0.00 62 1012.5
20260904185556 93 245 1.0 3.0 0.00 0.00 0.00 61 1012.4
20260904185056 93 156 1.0 3.0 0.00 0.00 0.00 62 1012.5
20260904184604 93 0 0.0 3.0 0.00 0.00 0.00 62 1012.5
20260904184057 93 77 1.0 3.0 0.00 0.00 0.00 62 1012.4
20260904183556 93 187 0.0 3.0 0.00 0.00 0.00 64 1012.5
20260904183107 93 270 1.0 3.0 0.00 0.00 0.00 64 1012.5
20260904182557 93 279 0.0 2.0 0.00 0.00 0.00 64 1012.5
20260904182059 92 0 0.0 6.0 0.00 0.00 0.00 68 1012.5
20260904181603 91 258 1.0 6.0 0.00 0.00 0.00 65 1012.5
20260904181056 92 174 2.0 5.0 0.00 0.00 0.00 66 1012.5
20260904180556 91 276 1.0 3.0 0.00 0.00 0.00 67 1012.4
20260904180108 91 197 0.0 4.0 0.00 0.00 0.00 66 1012.3
20260904175556 91 245 2.0 4.0 0.00 0.00 0.00 65 1012.4
20260904175056 91 202 1.0 3.0 0.00 0.00 0.00 68 1012.4
20260904174611 91 124 0.0 3.0 0.00 0.00 0.00 67 1012.4
20260904174055 91 203 0.0 4.0 0.00 0.00 0.00 68 1012.3
20260904173555 90 246 0.0 5.0 0.00 0.00 0.00 67 1012.4
20260904173107 89 265 2.0 5.0 0.00 0.00 0.00 69 1012.4
20260904172556 90 259 2.0 5.0 0.00 0.00 0.00 67 1012.3
20260904172056 90 205 2.0 4.0 0.00 0.00 0.00 70 1012.4
20260904171602 90 278 2.0 4.0 0.00 0.00 0.00 70 1012.3
20260904171055 90 198 1.0 4.0 0.00 0.00 0.00 68 1012.3
20260904170556 90 264 1.0 4.0 0.00 0.00 0.00 68 1012.2
20260904170107 90 155 1.0 5.0 0.00 0.00 0.00 68 1012.3
20260904165556 89 175 1.0 5.0 0.00 0.02 0.00 71 1012.1
20260904165056 89 148 3.0 5.0 0.00 0.02 0.00 70 1012.1
20260904164641 89 142 2.0 5.0 0.00 0.02 0.00 72 1012.1
20260904164056 89 183 2.0 4.0 0.00 0.02 0.00 71 1012.2
20260904163556 89 146 1.0 3.0 0.00 0.02 0.00 73 1012.1
20260904163105 88 130 0.0 5.0 0.00 0.02 0.00 72 1012.2
20260904162556 88 150 1.0 5.0 0.00 0.02 0.00 72 1012.3
20260904162057 87 131 1.0 3.0 0.00 0.02 0.00 73 1012.3
20260904161610 86 174 0.0 5.0 0.00 0.02 0.00 74 1012.2
20260904161056 86 68 1.0 5.0 0.00 0.02 0.00 76 1012.2
20260904160555 85 51 2.0 4.0 0.00 0.02 0.00 75 1012.2
20260904160107 86 94 1.0 4.0 0.00 0.02 0.00 75 1012.2
20260904155553 85 57 1.0 4.0 0.00 0.02 0.00 75 1012.2
20260904155051 85 34 2.0 4.0 0.00 0.02 0.00 76 1012.1
20260904154605 85 48 1.0 4.0 0.00 0.02 0.00 75 1012.0
20260904154051 85 350 0.0 4.0 0.00 0.02 0.00 76 1012.1
20260904153551 84 0 2.0 4.0 0.00 0.02 0.00 74 1012.1
20260904153104 85 78 0.0 3.0 0.00 0.02 0.00 74 1012.0
20260904152551 84 37 1.0 3.0 0.00 0.02 0.00 76 1012.0
20260904152054 85 51 1.0 3.0 0.00 0.02 0.00 73 1012.1
20260904151605 85 0 0.0 2.0 0.00 0.02 0.00 75 1012.0
20260904151052 84 0 0.0 2.0 0.00 0.02 0.00 74 1012.1
20260904150552 84 329 0.0 2.0 0.00 0.02 0.00 75 1012.1
20260904150057 84 0 0.0 3.0 0.00 0.02 0.00 76 1012.1
20260904145552 84 0 0.0 4.0 0.00 0.02 0.00 77 1012.1
20260904145054 83 225 0.0 4.0 0.00 0.02 0.00 77 1012.1
20260904144614 83 220 1.0 4.0 0.00 0.02 0.00 77 1012.2
20260904144051 83 0 1.0 3.0 0.00 0.02 0.00 78 1012.1
20260904143553 83 242 1.0 3.0 0.00 0.02 0.00 77 1012.0
20260904143113 82 238 0.0 2.0 0.00 0.02 0.00 77 1012.0
20260904142553 82 0 0.0 2.0 0.00 0.02 0.00 79 1012.0
20260904142053 81 248 1.0 2.0 0.00 0.02 0.00 78 1012.0
20260904141605 81 269 0.0 3.0 0.00 0.02 0.00 79 1012.0
20260904141053 81 263 0.0 4.0 0.00 0.02 0.00 80 1012.0
20260904140554 81 269 1.0 4.0 0.00 0.02 0.00 80 1011.9
20260904140101 80 0 2.0 4.0 0.00 0.02 0.00 80 1011.8
20260904135554 80 173 1.0 5.0 0.00 0.02 0.00 80 1011.9
20260904135054 80 257 2.0 5.0 0.00 0.02 0.00 80 1011.9
20260904134608 80 198 1.0 3.0 0.00 0.02 0.00 81 1011.9
20260904134054 80 179 0.0 3.0 0.00 0.02 0.00 82 1011.9
20260904133553 79 189 1.0 3.0 0.00 0.02 0.00 83 1011.9
20260904133117 78 219 1.0 3.0 0.00 0.02 0.00 84 1011.9
20260904132554 78 258 1.0 3.0 0.00 0.02 0.00 85 1011.9
20260904132054 77 265 0.0 3.0 0.00 0.02 0.00 86 1011.8
20260904131606 77 264 1.0 3.0 0.00 0.02 0.00 86 1011.7
20260904131054 76 278 1.0 3.0 0.00 0.02 0.00 86 1011.7
20260904130554 76 207 1.0 3.0 0.00 0.02 0.00 88 1011.6
20260904130059 75 264 1.0 3.0 0.00 0.02 0.00 89 1011.6
20260904125556 75 277 0.0 3.0 0.00 0.05 0.00 89 1011.5
20260904125055 74 213 0.0 4.0 0.00 0.05 0.00 89 1011.5
20260904124609 74 238 1.0 4.0 0.00 0.05 0.00 90 1011.4
20260904124055 74 211 1.0 4.0 0.00 0.05 0.00 90 1011.4
20260904123553 73 206 1.0 3.0 0.00 0.05 0.00 91 1011.4
20260904123104 73 200 2.0 3.0 0.00 0.05 0.00 92 1011.3
20260904122553 72 198 1.0 3.0 0.00 0.05 0.00 93 1011.3
20260904122056 72 161 1.0 3.0 0.00 0.05 0.00 93 1011.2
20260904121604 72 269 1.0 3.0 0.00 0.05 0.00 93 1011.3
20260904121053 71 257 2.0 3.0 0.00 0.05 0.00 94 1011.2
20260904120553 71 269 1.0 3.0 0.00 0.05 0.00 93 1011.1
20260904120106 71 198 1.0 2.0 0.00 0.05 0.00 94 1011.3
20260904115553 71 195 0.0 2.0 0.00 0.05 0.00 94 1011.2
20260904115055 71 261 1.0 2.0 0.00 0.05 0.00 94 1011.1
20260904114605 71 283 1.0 2.0 0.00 0.05 0.00 94 1011.1
20260904114054 71 281 0.0 2.0 0.00 0.05 0.00 93 1011.1
20260904113558 71 0 0.0 1.0 0.00 0.05 0.00 93 1011.1
20260904113106 71 0 0.0 2.0 0.00 0.05 0.00 94 1011.1
20260904112553 71 243 0.0 2.0 0.00 0.05 0.00 94 1011.1
20260904112053 71 281 1.0 2.0 0.00 0.05 0.00 94 1011.0
20260904111607 71 267 0.0 3.0 0.00 0.05 0.00 93 1011.0
20260904111055 71 256 0.0 3.0 0.00 0.05 0.00 93 1011.0
20260904110559 71 0 1.0 3.0 0.00 0.05 0.00 93 1010.9
20260904110105 72 0 0.0 3.0 0.00 0.05 0.00 93 1010.9
20260904105555 72 213 0.0 2.0 0.00 0.05 0.00 93 1010.9
20260904105054 72 271 0.0 2.0 0.00 0.05 0.00 93 1010.9
20260904104613 72 250 1.0 3.0 0.00 0.05 0.00 93 1010.9
20260904104055 72 264 1.0 4.0 0.00 0.05 0.00 93 1010.9
20260904103555 72 273 1.0 4.0 0.00 0.05 0.00 93 1011.0
20260904103110 72 276 2.0 5.0 0.00 0.05 0.00 93 1010.9
20260904102556 72 299 1.0 5.0 0.00 0.05 0.00 93 1011.0
20260904102055 72 207 1.0 3.0 0.00 0.05 0.00 93 1011.0
20260904101604 72 205 2.0 4.0 0.00 0.05 0.00 92 1011.0
20260904101055 73 219 1.0 4.0 0.00 0.05 0.00 91 1011.0
20260904100555 73 198 1.0 4.0 0.00 0.05 0.00 91 1011.0
20260904100122 73 0 0.0 2.0 0.00 0.05 0.00 91 1011.0
20260904095557 73 229 1.0 3.0 0.00 0.08 0.00 91 1010.9
20260904095053 74 262 1.0 3.0 0.00 0.08 0.00 91 1010.9
20260904094610 74 272 1.0 4.0 0.00 0.08 0.00 91 1010.9
20260904094052 74 283 2.0 4.0 0.00 0.08 0.00 91 1010.9
20260904093556 74 266 2.0 6.0 0.00 0.08 0.00 91 1010.9
20260904093114 74 178 2.0 6.0 0.00 0.08 0.00 91 1010.9
20260904092553 73 169 1.0 4.0 0.00 0.08 0.00 92 1010.7
20260904092053 73 91 2.0 3.0 0.00 0.08 0.00 92 1010.8
20260904091607 73 265 2.0 3.0 0.00 0.08 0.00 92 1010.7
20260904091053 73 249 1.0 3.0 0.00 0.08 0.00 93 1010.6
20260904090552 73 264 1.0 3.0 0.00 0.08 0.00 93 1010.6
20260904090103 72 242 1.0 3.0 0.00 0.08 0.00 93 1010.6
20260904085554 72 255 1.0 3.0 0.00 0.08 0.00 93 1010.6
20260904085055 72 0 1.0 3.0 0.00 0.08 0.00 93 1010.6
20260904084610 73 203 1.0 3.0 0.00 0.08 0.00 93 1010.6
20260904084055 73 238 1.0 2.0 0.00 0.08 0.00 93 1010.4